[[{"header":{"parameterUnit":"m.s-1","parameterCategory":1,"la1":30.2992,"la2":30.254,"lo1":-89.0895,"lo2":-89.0443,"dy":0.0025,"dx":0.0025,"nx":19,"ny":19,"refTime":"2026-04-30T09:00:00:Z","depth":0,"parameterNumber":2,"parameterNumberName":"U-component_of_WINDS"},"data":[0,0,0,-4.9489,-4.9492,-4.9652,-4.9653,-4.9886,-4.9889,0,0,0,0,0,0,0,0,0,0,0,-4.946,-4.9462,-4.9488,-4.9493,-4.9652,-4.9653,-4.9886,-4.9889,0,0,0,0,0,0,0,0,0,0,0,-4.9459,-4.9462,-4.9465,-4.9493,-4.9652,-4.9653,-4.9885,-4.9754,0,0,0,0,0,0,0,0,0,0,-4.9594,-4.9587,-4.9461,-4.9465,-4.9495,-4.9652,-4.9653,-4.9747,-4.9762,-4.9827,0,-4.9891,0,-4.9894,-4.9906,-4.9907,0,0,0,-4.9478,-4.9574,-4.96,-4.9465,-4.9496,-4.9652,-4.9576,-4.9755,-4.9772,-4.9847,-4.9894,-4.9901,-4.9898,-4.9908,-4.9909,-5.0334,-5.0337,0,0,-4.9469,-4.9499,-4.9589,-4.9612,-4.9591,-4.9571,-4.9581,-4.9765,-4.9817,-4.9894,-4.9906,-4.9901,-4.991,-4.9912,-5.0332,-5.0335,0,0,0,-4.9454,-4.9494,-4.9514,-4.9604,-4.963,-4.9576,-4.9588,-4.9809,-4.9813,-4.9909,-4.9904,-4.9911,-4.9915,-5.0329,-5.0333,-5.0496,0,0,0,-4.9448,-4.9484,-4.9511,-4.9531,-4.9628,-4.9722,-4.9628,-4.9801,-4.9821,-4.9903,-4.9911,-4.9917,-5.0326,-5.0331,-5.0485,-5.0569,0,0,0,-4.9443,-4.9483,-4.9513,-4.9532,-4.9602,-4.9718,-4.9733,-4.9804,-4.9819,-4.9907,-4.9918,-5.0324,-5.033,-5.0475,-5.0553,-5.0691,0,0,0,-4.9447,-4.9654,-4.9516,-4.9746,-4.9601,-4.9818,-4.9731,-4.9891,-4.9986,-4.9913,-5.0326,-5.0332,-5.0472,-5.0543,-5.0681,-5.0815,-5.0873,0,0,-4.9725,-4.9689,-4.9822,-4.9703,-4.9953,-4.9791,-5.0063,-5.0122,-5.0101,-5.0257,-5.0267,-5.0489,-5.0551,-5.0689,-5.1183,-5.123,0,0,0,-4.992,-5.0017,-5.0076,-5.0169,-5.0219,-5.0269,-5.0282,-5.0304,-5.0435,-5.0188,-5.0573,-5.061,-5.0689,-5.0752,-5.0792,-5.0859,-5.0362,-5.0361,-5.0361,-5.0359,-5.0323,-5.0541,-5.0526,-5.0616,-5.0628,-5.0699,-5.0729,-5.0665,-5.0757,-5.0804,-5.1109,-5.1183,-5.1213,-5.1283,-5.0869,-5.087,-5.0871,-5.0871,-5.0766,-5.0898,-5.0809,-5.0989,-5.0949,-5.1099,-5.1118,-5.1068,-5.1202,-5.107,-5.1138,-5.1,-5.1265,-5.1325,-5.0883,-5.0881,-5.0879,-5.0878,-5.0877,-5.1052,-5.1109,-5.1132,-5.1263,-5.1368,-5.1343,-5.1476,-5.1434,-5.1395,-5.1463,-5.1509,-5.1506,-5.1501,-5.1487,-5.1488,-5.1489,-5.149,-5.1491,-5.1491,-5.1341,-5.1362,-5.148,-5.1551,-5.1605,-5.1672,-5.1685,-5.1737,-5.1784,-5.1743,-5.1743,-5.1672,-5.1296,-5.1205,-5.1508,-5.1505,-5.1503,-5.1501,-5.15,-5.1773,-5.1669,-5.1852,-5.1907,-5.1987,-5.2094,-5.2038,-5.2148,-5.2184,-5.2252,-5.2165,-5.1893,-5.1853,-5.1821,-5.1746,-5.217,-5.217,-5.217,-5.217,-5.2017,-5.1992,-5.217,-5.2261,-5.2344,-5.2313,-5.2521,-5.2533,-5.2528,-5.2548,-5.248,-5.2374,-5.2344,-5.2322,-5.2279,-5.2208,-5.2741,-5.2741,-5.2742,-5.2282,-5.2263,-5.2449,-5.2444,-5.2503,-5.2555,-5.275,-5.2857,-5.2829,-5.2764,-5.2564,-5.254,-5.2369,-5.2315,-5.2249,-5.2184,-5.2052,0,0]},{"header":{"parameterUnit":"m.s-1","parameterCategory":1,"la1":30.2992,"la2":30.254,"lo1":-89.0895,"lo2":-89.0443,"dy":0.0025,"dx":0.0025,"nx":19,"ny":19,"refTime":"2026-04-30T09:00:00:Z","depth":0,"parameterNumber":3,"parameterNumberName":"V-component_of_WINDS"},"data":[0,0,0,-4.6669,-4.6669,-4.6616,-4.6616,-4.6582,-4.6582,0,0,0,0,0,0,0,0,0,0,0,-4.6706,-4.6707,-4.6669,-4.6669,-4.6616,-4.6616,-4.6582,-4.6582,0,0,0,0,0,0,0,0,0,0,0,-4.6706,-4.6707,-4.6707,-4.6668,-4.6616,-4.6616,-4.6582,-4.6609,0,0,0,0,0,0,0,0,0,0,-4.6654,-4.671,-4.6707,-4.6707,-4.6668,-4.6617,-4.6616,-4.661,-4.6608,-4.662,0,-4.6639,0,-4.661,-4.6582,-4.6582,0,0,0,-4.6652,-4.6713,-4.6679,-4.6707,-4.6668,-4.6617,-4.6635,-4.6608,-4.6606,-4.6617,-4.6638,-4.6635,-4.6609,-4.6582,-4.6582,-4.6709,-4.671,0,0,-4.6655,-4.6709,-4.6681,-4.6678,-4.669,-4.6637,-4.6634,-4.6606,-4.6632,-4.6637,-4.6634,-4.6609,-4.6582,-4.6582,-4.6708,-4.6709,0,0,0,-4.6675,-4.6711,-4.6677,-4.6681,-4.6669,-4.6636,-4.6632,-4.6633,-4.6617,-4.6633,-4.6608,-4.6582,-4.6582,-4.6706,-4.6708,-4.6826,0,0,0,-4.6675,-4.6722,-4.668,-4.6712,-4.667,-4.6651,-4.666,-4.6619,-4.6614,-4.6609,-4.6582,-4.6582,-4.6705,-4.6707,-4.682,-4.6873,0,0,0,-4.6702,-4.6725,-4.6725,-4.6715,-4.6694,-4.665,-4.6632,-4.6617,-4.66,-4.6582,-4.6582,-4.6704,-4.6707,-4.6814,-4.6864,-4.6921,0,0,0,-4.6746,-4.6832,-4.6728,-4.6813,-4.6695,-4.6724,-4.6632,-4.665,-4.6649,-4.6582,-4.6705,-4.6708,-4.6812,-4.6858,-4.6915,-4.6978,-4.701,0,0,-4.6884,-4.6851,-4.6897,-4.6802,-4.6862,-4.6727,-4.6804,-4.6753,-4.6702,-4.6709,-4.6712,-4.6822,-4.6863,-4.6919,-4.717,-4.7196,0,0,0,-4.6958,-4.6992,-4.6996,-4.6997,-4.696,-4.693,-4.6861,-4.6841,-4.6844,-4.6717,-4.6857,-4.688,-4.691,-4.6938,-4.696,-4.6982,-4.6724,-4.6723,-4.6723,-4.7231,-4.716,-4.723,-4.7153,-4.7155,-4.7081,-4.7075,-4.7035,-4.6966,-4.6999,-4.7001,-4.7162,-4.7196,-4.7212,-4.7236,-4.7029,-4.703,-4.703,-4.7031,-4.7425,-4.746,-4.7362,-4.7396,-4.732,-4.7346,-4.7277,-4.7226,-4.7238,-4.7155,-4.7179,-4.7094,-4.7242,-4.7259,-4.7039,-4.7037,-4.7036,-4.7035,-4.7035,-4.7595,-4.7599,-4.7573,-4.7565,-4.7566,-4.7484,-4.7499,-4.743,-4.7365,-4.7388,-4.7381,-4.7379,-4.7367,-4.739,-4.739,-4.7391,-4.7391,-4.7392,-4.7392,-4.7781,-4.7748,-4.777,-4.7735,-4.7724,-4.7702,-4.7626,-4.7613,-4.7581,-4.7529,-4.7528,-4.7454,-4.727,-4.7225,-4.74,-4.7399,-4.7398,-4.7397,-4.7396,-4.8004,-4.7941,-4.7976,-4.7966,-4.7916,-4.7921,-4.7831,-4.781,-4.7789,-4.7799,-4.7717,-4.7594,-4.7554,-4.7537,-4.7499,-4.7734,-4.7734,-4.7734,-4.7734,-4.8146,-4.8119,-4.8137,-4.8124,-4.8104,-4.8025,-4.8063,-4.8004,-4.7932,-4.7914,-4.787,-4.7814,-4.7799,-4.7768,-4.7745,-4.7708,-4.7992,-4.7992,-4.7992,-4.8278,-4.8245,-4.8293,-4.8222,-4.8177,-4.814,-4.8173,-4.816,-4.8066,-4.8001,-4.7898,-4.7887,-4.7795,-4.777,-4.7704,-4.767,-4.7601,0,0]}]]